Find Starlink 2121

NORAD ID: 47399 Int'l Des: 2021-005 Owner: SPXS Country: US Constellation: starlink operational
LEOCIRCULAR

Current View

Loading 3D Globe...

About Starlink 2121

Description loading...

Upcoming Passes

Passes for default location (London). Set your location on the main map for personalized predictions.

Altitude History

Loading altitude history...

Two-Line Element Set

1 47399U 21005BC 26150.94109262 .00008516 00000-0 28576-3 0 9998
2 47399 53.1605 14.1210 0001405 82.0265 278.0896 15.31712162295999
Epoch: May 30, 2026 • Age: 17 hours

Current Status

Altitude 484.1 km
Velocity 7.62 km/s
Sub-Earth Point -38.77°S, 109.73°E
Launch Date Jan 20, 2021
Age 5.3 years
Type internet

Technical Details

Classification Payload
Mass 260.00 kg
Dry Mass 248.00 kg
Total Mass 260.00 kg
Length 0.20 m
Diameter 2.80 m
Span 9.00 m
Shape Box + pan
Manufacturer SPXS
Bus Type Starlink
Phase Status In Orbit
Owner/State SPXS/US

Most Searched